Lid_Strength_Index
1 2 3 5 10 12 14 13 12 12 12 10 9 10 9 9 9 11 5 2 1 1 0 -0 -1 -2 -2 -2 -1 -1 -1 -1 -1 -1 -1 -1 -1 -1 -1 -1 -1 -1 -1 -1 -2 -2 -1 -1 -1
3 3 5 9 12 16 14 12 12 11 11 10 10 10 10 10 7 6 4 2 1 1 1 0 -1 -1 -1 -1 -1 -1 -1 -1 -1 -1 -1 -1 -1 -1 -1 -1 -1 -1 -1 -2 -1 -2 -1 -1 -1
4 4 7 11 14 15 14 13 12 11 11 11 10 10 10 9 8 6 4 2 2 2 1 0 -1 -1 -1 -1 -1 -2 -2 -1 -1 -1 -1 -2 -2 -2 -2 -2 -2 -2 -2 -2 -2 -1 -0 -0 -0
6 7 10 12 13 12 12 11 11 11 11 10 11 10 10 8 7 6 4 2 2 2 2 -0 -1 -1 -1 -1 -1 -2 -1 -1 -1 -2 -2 -2 -2 -1 -1 -1 -1 -1 -1 -0 0 1 1 1 1
8 9 13 14 14 13 12 11 11 11 12 11 10 11 10 9 8 6 3 2 3 3 2 1 -1 -1 -1 -1 -1 -1 -1 -2 -2 -2 -2 -1 -1 -0 0 0 0 0 1 1 1 1 1 1 1
10 11 14 15 14 12 11 11 11 12 12 12 11 10 10 10 8 6 4 4 3 3 2 1 -0 -1 -1 -1 -1 -1 -1 -2 -2 -1 -0 -0 0 0 1 1 1 1 1 1 1 2 2 2 2
10 12 14 15 13 12 11 11 12 11 12 11 11 12 10 11 8 6 6 5 5 4 3 3 2 0 -1 -1 -1 -2 -2 -1 -0 0 1 1 1 1 2 2 1 1 1 2 2 3 3 3 3
10 11 14 14 14 12 11 11 11 11 10 11 9 11 11 9 9 7 7 6 6 6 5 5 4 3 3 2 -0 -1 -1 -0 1 1 1 2 3 2 3 2 2 2 2 3 4 4 5 4 5
10 14 15 14 13 12 11 12 11 11 11 11 9 11 10 10 10 9 9 8 8 7 6 6 6 6 6 5 3 1 0 1 1 2 2 4 8 8 7 4 3 4 4 4 5 6 7 7 7
10 15 14 12 12 12 11 11 11 10 12 11 10 11 10 11 10 10 10 9 8 8 7 7 7 7 7 6 6 6 5 6 7 8 8 10 11 10 8 6 5 5 6 5 6 7 8 11 13
11 13 11 10 9 10 11 12 10 12 11 11 10 10 10 11 11 10 9 8 8 7 8 8 8 8 8 8 8 8 9 10 10 10 11 11 11 10 11 11 12 13 11 13 12 13 13 13 13
12 10 10 9 9 10 11 10 11 11 8 9 9 10 10 11 11 11 11 10 10 10 8 9 9 9 10 10 9 10 10 11 11 11 11 12 12 13 13 13 14 14 14 15 14 14 14 14 14
11 10 9 9 9 9 10 10 11 11 8 9 9 10 10 10 10 10 10 10 11 10 9 9 9 9 10 11 10 11 11 10 11 11 11 12 13 13 14 14 14 15 15 15 15 15 15 15 14
11 10 10 10 10 10 10 10 11 9 9 9 10 10 10 10 9 10 11 10 11 11 11 10 10 9 10 11 10 10 11 11 12 12 11 12 13 14 14 15 15 15 15 15 15 15 16 16 15
11 12 12 11 11 10 10 12 12 8 10 10 10 10 10 10 10 10 9 9 10 10 11 11 10 10 10 11 11 11 11 11 12 12 12 12 13 14 14 15 15 15 15 15 16 16 16 16 16
14 14 15 13 12 12 11 14 10 10 10 10 10 11 11 10 10 8 8 9 9 10 11 11 10 10 10 11 11 11 11 11 12 13 13 13 13 14 15 15 16 16 16 16 16 17 17 17 17
17 17 16 14 12 12 12 14 11 11 11 11 11 11 10 11 10 10 8 9 9 10 10 11 11 11 11 11 11 12 12 12 12 14 14 13 13 14 15 15 16 16 16 17 16 17 17 18 17
18 18 17 16 14 14 14 14 12 10 12 12 11 11 10 10 9 8 9 9 9 10 10 11 11 11 11 11 12 13 13 13 14 13 14 14 14 15 15 16 16 16 17 17 17 18 17 18 18
17 17 18 15 13 15 15 14 13 11 11 13 12 11 10 9 8 8 9 10 10 11 11 11 12 11 11 12 14 14 13 14 14 13 14 14 15 15 16 16 16 17 17 17 18 18 18 18 18
15 16 17 14 13 15 15 15 13 13 12 11 11 11 10 10 9 9 11 11 11 11 11 11 11 11 11 12 12 13 13 14 13 14 14 14 15 15 16 16 17 17 17 17 18 18 19 18 19
16 17 16 16 15 16 17 16 15 14 13 11 11 10 10 10 10 9 11 12 12 11 11 11 11 12 11 11 12 16 16 17 17 16 15 15 15 16 16 16 17 17 18 18 18 18 18 19 19
16 14 15 15 18 19 17 20 17 15 14 14 12 11 11 11 10 10 11 13 13 11 11 11 12 12 12 12 13 13 14 14 15 14 15 15 15 16 16 16 17 17 18 18 18 18 18 19 19
15 15 16 17 19 19 19 20 18 16 16 14 12 12 11 10 11 10 11 12 12 12 12 12 12 13 12 13 13 13 13 13 15 15 16 16 16 16 16 17 18 18 18 18 18 18 18 19 19
15 16 17 18 19 21 18 18 19 18 15 15 13 12 11 11 11 12 13 13 13 14 14 14 14 14 13 13 13 13 14 16 17 16 16 16 16 16 17 17 18 18 18 18 18 18 18 19 19
15 18 21 22 23 21 18 19 16 15 14 13 12 12 13 13 13 13 13 13 14 15 15 15 15 14 14 14 14 14 14 15 15 16 15 16 16 17 17 17 18 18 18 18 18 19 19 19 19
17 17 20 25 23 19 19 19 15 14 13 13 14 14 13 13 13 13 13 13 14 15 16 15 15 15 15 15 14 14 14 14 14 15 15 15 15 16 17 17 17 18 18 19 19 19 19 19 19
18 18 16 19 25 24 18 16 13 15 15 15 14 15 14 14 14 14 13 14 14 15 15 15 15 15 15 15 14 14 14 14 14 15 15 15 15 16 17 17 18 18 18 19 19 19 20 20 19
16 15 19 19 22 25 19 18 17 14 12 11 14 14 14 14 13 13 13 13 14 15 15 15 15 14 15 15 14 14 14 14 15 16 16 16 16 16 17 17 17 18 18 19 19 20 20 20 20
17 17 17 16 17 19 20 17 12 12 14 15 14 14 14 12 12 12 11 12 13 14 15 15 15 15 14 14 14 15 15 15 15 16 16 16 17 17 17 17 18 18 19 19 20 20 20 20 21
14 14 14 17 18 16 15 15 10 10 10 11 10 10 12 12 12 12 12 11 11 13 14 14 15 14 14 14 15 15 15 16 15 16 16 16 17 17 18 18 18 18 19 19 20 20 20 21 21